| time (UTC) | temp F | wind direction | speed MPH | gust MPH | rain 1hr in | rain 24hr in | rain mn in | humidity % | barometer mb |
| 20260903195005 | 79 | 333 | 2.0 | 4.0 | 0.00 | 1.62 | 1.59 | 98 | 1012.5 |
| 20260903194005 | 79 | 30 | 1.0 | 3.0 | 0.01 | 1.62 | 1.59 | 99 | 1012.4 |
| 20260903193005 | 79 | 358 | 0.0 | 2.0 | 0.13 | 1.89 | 1.59 | 99 | 1012.7 |
| 20260903192005 | 78 | 357 | 1.0 | 3.0 | 0.55 | 2.00 | 1.59 | 99 | 1012.7 |
| 20260903191005 | 77 | 352 | 0.0 | 2.0 | 1.13 | 2.00 | 1.59 | 99 | 1012.9 |
| 20260903190217 | 77 | 344 | 0.0 | 3.0 | 1.13 | 2.00 | 1.59 | 99 | 1012.9 |
| 20260903185005 | 77 | 356 | 1.0 | 2.0 | 1.13 | 2.00 | 1.59 | 99 | 1012.9 |
| 20260903184005 | 77 | 327 | 1.0 | 3.0 | 1.12 | 1.99 | 1.58 | 98 | 1013.0 |
| 20260903183006 | 76 | 73 | 1.0 | 3.0 | 1.00 | 1.87 | 1.46 | 97 | 1013.5 |
| 20260903182004 | 77 | 126 | 1.0 | 4.0 | 0.58 | 1.45 | 1.04 | 97 | 1013.7 |
| 20260903181005 | 81 | 67 | 1.0 | 4.0 | 0.00 | 0.87 | 0.46 | 94 | 1013.7 |
| 20260903180005 | 82 | 344 | 1.0 | 2.0 | 0.00 | 0.87 | 0.46 | 93 | 1013.1 |
| 20260903175004 | 83 | 358 | 0.0 | 2.0 | 0.00 | 0.87 | 0.46 | 91 | 1013.6 |
| 20260903174004 | 83 | 344 | 1.0 | 2.0 | 0.00 | 0.87 | 0.46 | 91 | 1013.5 |
| 20260903173216 | 83 | 298 | 0.0 | 3.0 | 0.00 | 0.87 | 0.46 | 92 | 1013.6 |
| 20260903172005 | 82 | 1 | 1.0 | 3.0 | 0.00 | 0.87 | 0.46 | 93 | 1014.0 |
| 20260903171004 | 82 | 360 | 1.0 | 2.0 | 0.00 | 0.87 | 0.46 | 93 | 1014.0 |
| 20260903170005 | 82 | 67 | 1.0 | 1.0 | 0.00 | 0.87 | 0.46 | 93 | 1014.3 |
| 20260903165005 | 82 | 67 | 0.0 | 1.0 | 0.00 | 0.87 | 0.46 | 93 | 1014.4 |
| 20260903164005 | 82 | 6 | 0.0 | 1.0 | 0.00 | 0.87 | 0.46 | 93 | 1014.5 |
| 20260903163005 | 81 | 350 | 1.0 | 3.0 | 0.03 | 0.87 | 0.46 | 95 | 1014.3 |
| 20260903162005 | 80 | 74 | 1.0 | 6.0 | 0.07 | 0.87 | 0.46 | 96 | 1014.2 |
| 20260903161005 | 80 | 338 | 1.0 | 6.0 | 0.10 | 0.87 | 0.46 | 98 | 1014.3 |
| 20260903160005 | 79 | 86 | 0.0 | 2.0 | 0.26 | 0.87 | 0.46 | 99 | 1014.7 |
| 20260903155005 | 78 | 87 | 0.0 | 2.0 | 0.28 | 0.87 | 0.46 | 99 | 1014.7 |
| 20260903154216 | 78 | 61 | 0.0 | 1.0 | 0.34 | 0.87 | 0.46 | 99 | 1014.7 |
| 20260903153217 | 77 | 91 | 0.0 | 3.0 | 0.37 | 0.85 | 0.44 | 99 | 1014.6 |
| 20260903152218 | 76 | 73 | 1.0 | 5.0 | 0.32 | 0.80 | 0.40 | 98 | 1014.9 |
| 20260903151004 | 78 | 79 | 2.0 | 6.0 | 0.29 | 0.77 | 0.36 | 98 | 1015.0 |
| 20260903150005 | 78 | 67 | 0.0 | 2.0 | 0.13 | 0.61 | 0.20 | 97 | 1014.7 |
| 20260903145216 | 79 | 74 | 0.0 | 1.0 | 0.11 | 0.59 | 0.19 | 96 | 1014.4 |
| 20260903144217 | 80 | 99 | 0.0 | 2.0 | 0.05 | 0.53 | 0.13 | 95 | 1014.2 |
| 20260903143005 | 83 | 82 | 1.0 | 3.0 | 0.00 | 0.48 | 0.07 | 93 | 1014.1 |
| 20260903142005 | 82 | 79 | 1.0 | 6.0 | 0.00 | 0.48 | 0.07 | 92 | 1014.0 |
| 20260903141004 | 84 | 89 | 1.0 | 3.0 | 0.06 | 0.48 | 0.07 | 88 | 1013.7 |
| 20260903140005 | 83 | 83 | 1.0 | 6.0 | 0.06 | 0.48 | 0.07 | 91 | 1013.8 |
| 20260903135216 | 83 | 91 | 0.0 | 2.0 | 0.06 | 0.48 | 0.07 | 91 | 1014.0 |
| 20260903134217 | 83 | 85 | 1.0 | 2.0 | 0.06 | 0.48 | 0.07 | 91 | 1013.7 |
| 20260903133005 | 83 | 47 | 0.0 | 2.0 | 0.06 | 0.48 | 0.07 | 94 | 1014.1 |
| 20260903132004 | 82 | 92 | 0.0 | 1.0 | 0.06 | 0.48 | 0.07 | 94 | 1014.2 |
| 20260903131005 | 81 | 87 | 0.0 | 2.0 | 0.00 | 0.42 | 0.01 | 93 | 1014.2 |
| 20260903130005 | 81 | 85 | 0.0 | 2.0 | 0.00 | 0.42 | 0.01 | 95 | 1014.1 |
| 20260903125005 | 80 | 97 | 0.0 | 1.0 | 0.00 | 0.42 | 0.01 | 98 | 1014.1 |
| 20260903124005 | 80 | 86 | 0.0 | 4.0 | 0.00 | 0.42 | 0.01 | 99 | 1014.0 |
| 20260903123005 | 79 | 87 | 0.0 | 1.0 | 0.01 | 0.42 | 0.01 | 99 | 1014.0 |
| 20260903122005 | 79 | 82 | 0.0 | 2.0 | 0.01 | 0.42 | 0.01 | 99 | 1013.9 |
| 20260903121005 | 79 | 0 | 0.0 | 0.0 | 0.01 | 0.42 | 0.01 | 99 | 1013.8 |
| 20260903120005 | 78 | 0 | 0.0 | 0.0 | 0.01 | 0.42 | 0.01 | 99 | 1013.8 |
| 20260903115004 | 77 | 0 | 0.0 | 0.0 | 0.01 | 0.42 | 0.01 | 99 | 1013.7 |
| 20260903114004 | 77 | 0 | 0.0 | 0.0 | 0.01 | 0.42 | 0.01 | 99 | 1013.2 |
| 20260903113005 | 76 | 0 | 0.0 | 0.0 | 0.00 | 0.41 | 0.00 | 99 | 1013.3 |
| 20260903112004 | 76 | 0 | 0.0 | 0.0 | 0.00 | 0.41 | 0.00 | 99 | 1013.0 |
| 20260903111004 | 76 | 0 | 0.0 | 0.0 | 0.00 | 0.41 | 0.00 | 99 | 1013.4 |
| 20260903110005 | 76 | 0 | 0.0 | 0.0 | 0.00 | 0.41 | 0.00 | 99 | 1013.1 |
| 20260903105004 | 76 | 0 | 0.0 | 0.0 | 0.00 | 0.41 | 0.00 | 99 | 1012.9 |
| 20260903104005 | 76 | 0 | 0.0 | 0.0 | 0.00 | 0.41 | 0.00 | 99 | 1012.8 |
| 20260903103215 | 76 | 0 | 0.0 | 0.0 | 0.00 | 0.41 | 0.00 | 99 | 1013.0 |
| 20260903102004 | 76 | 0 | 0.0 | 0.0 | 0.00 | 0.41 | 0.00 | 99 | 1012.4 |
| 20260903101005 | 76 | 0 | 0.0 | 0.0 | 0.00 | 0.41 | 0.00 | 99 | 1012.4 |
| 20260903100005 | 76 | 0 | 0.0 | 0.0 | 0.00 | 0.41 | 0.00 | 99 | 1012.5 |
| 20260903095005 | 76 | 0 | 0.0 | 0.0 | 0.00 | 0.41 | 0.00 | 99 | 1012.4 |
| 20260903094005 | 76 | 0 | 0.0 | 0.0 | 0.00 | 0.41 | 0.00 | 99 | 1012.1 |
| 20260903093004 | 76 | 0 | 0.0 | 0.0 | 0.00 | 0.41 | 0.00 | 99 | 1012.4 |
| 20260903092005 | 76 | 0 | 0.0 | 0.0 | 0.00 | 0.41 | 0.00 | 99 | 1012.2 |
| 20260903091004 | 76 | 0 | 0.0 | 0.0 | 0.00 | 0.41 | 0.00 | 99 | 1012.5 |
| 20260903090005 | 76 | 0 | 0.0 | 0.0 | 0.00 | 0.41 | 0.00 | 99 | 1012.5 |
| 20260903085005 | 76 | 0 | 0.0 | 0.0 | 0.00 | 0.41 | 0.00 | 99 | 1012.4 |
| 20260903084004 | 76 | 0 | 0.0 | 0.0 | 0.00 | 0.41 | 0.00 | 99 | 1012.2 |
| 20260903083005 | 77 | 0 | 0.0 | 0.0 | 0.00 | 0.41 | 0.00 | 99 | 1012.3 |
| 20260903082004 | 77 | 0 | 0.0 | 0.0 | 0.00 | 0.41 | 0.00 | 99 | 1012.3 |
| 20260903081004 | 77 | 0 | 0.0 | 0.0 | 0.00 | 0.41 | 0.00 | 99 | 1012.4 |
| 20260903080005 | 77 | 0 | 0.0 | 0.0 | 0.00 | 0.41 | 0.00 | 99 | 1012.2 |
| 20260903075005 | 76 | 0 | 0.0 | 0.0 | 0.00 | 0.41 | 0.00 | 99 | 1012.0 |
| 20260903074005 | 77 | 0 | 0.0 | 0.0 | 0.00 | 0.41 | 0.00 | 99 | 1012.6 |
| 20260903073005 | 77 | 0 | 0.0 | 0.0 | 0.00 | 0.41 | 0.00 | 99 | 1012.5 |
| 20260903072218 | 77 | 0 | 0.0 | 0.0 | 0.00 | 0.41 | 0.00 | 98 | 1012.7 |
| 20260903071005 | 77 | 0 | 0.0 | 0.0 | 0.00 | 0.41 | 0.00 | 98 | 1012.9 |
| 20260903070005 | 77 | 78 | 0.0 | 2.0 | 0.00 | 0.41 | 0.00 | 98 | 1013.0 |
| 20260903065005 | 77 | 0 | 0.0 | 0.0 | 0.00 | 0.41 | 0.00 | 98 | 1013.0 |
| 20260903064005 | 77 | 0 | 0.0 | 0.0 | 0.00 | 0.41 | 0.00 | 98 | 1013.2 |
| 20260903063004 | 77 | 0 | 0.0 | 0.0 | 0.00 | 0.41 | 0.00 | 98 | 1013.2 |
| 20260903062005 | 78 | 0 | 0.0 | 0.0 | 0.00 | 0.41 | 0.00 | 98 | 1013.1 |
| 20260903061005 | 78 | 83 | 0.0 | 0.0 | 0.00 | 0.41 | 0.00 | 98 | 1013.5 |
| 20260903060005 | 78 | 85 | 0.0 | 2.0 | 0.00 | 0.41 | 0.00 | 98 | 1013.5 |
| 20260903055005 | 78 | 84 | 0.0 | 1.0 | 0.00 | 0.41 | 0.00 | 97 | 1013.4 |
| 20260903054005 | 78 | 86 | 0.0 | 1.0 | 0.00 | 0.41 | 0.00 | 97 | 1013.7 |
| 20260903053005 | 78 | 80 | 1.0 | 3.0 | 0.00 | 0.41 | 0.00 | 97 | 1013.5 |
| 20260903052005 | 78 | 74 | 0.0 | 1.0 | 0.00 | 0.41 | 0.00 | 97 | 1013.7 |
| 20260903051005 | 78 | 81 | 1.0 | 3.0 | 0.00 | 0.41 | 0.00 | 97 | 1013.6 |
| 20260903050005 | 78 | 81 | 1.0 | 3.0 | 0.00 | 0.41 | 0.00 | 97 | 1013.8 |
| 20260903045004 | 78 | 73 | 1.0 | 4.0 | 0.00 | 0.41 | 0.00 | 97 | 1013.9 |
| 20260903044218 | 78 | 73 | 0.0 | 2.0 | 0.00 | 0.41 | 0.00 | 97 | 1013.7 |
| 20260903043004 | 78 | 70 | 1.0 | 4.0 | 0.00 | 0.41 | 0.00 | 97 | 1013.9 |
| 20260903042005 | 78 | 83 | 1.0 | 3.0 | 0.00 | 0.41 | 0.00 | 97 | 1013.9 |
| 20260903041215 | 78 | 78 | 1.0 | 2.0 | 0.00 | 0.41 | 0.00 | 97 | 1014.0 |
| 20260903040027 | 78 | 84 | 1.0 | 2.0 | 0.00 | 0.41 | 0.00 | 97 | 1013.7 |
| 20260903035005 | 78 | 81 | 1.0 | 3.0 | 0.00 | 0.41 | 0.41 | 97 | 1014.0 |
| 20260903034218 | 78 | 80 | 0.0 | 2.0 | 0.00 | 0.41 | 0.41 | 97 | 1013.9 |
| 20260903033005 | 78 | 84 | 1.0 | 2.0 | 0.00 | 0.41 | 0.41 | 97 | 1014.1 |
| 20260903032004 | 78 | 78 | 0.0 | 2.0 | 0.00 | 0.41 | 0.41 | 96 | 1014.0 |
| 20260903031005 | 78 | 80 | 0.0 | 1.0 | 0.00 | 0.41 | 0.41 | 96 | 1014.1 |
| 20260903030005 | 78 | 0 | 0.0 | 0.0 | 0.00 | 0.41 | 0.41 | 96 | 1014.4 |
| 20260903025005 | 78 | 85 | 0.0 | 1.0 | 0.00 | 0.41 | 0.41 | 96 | 1014.5 |
| 20260903024005 | 78 | 73 | 0.0 | 2.0 | 0.00 | 0.41 | 0.41 | 96 | 1014.4 |
| 20260903023004 | 78 | 88 | 0.0 | 2.0 | 0.00 | 0.41 | 0.41 | 96 | 1014.6 |
| 20260903022005 | 78 | 78 | 1.0 | 3.0 | 0.00 | 0.41 | 0.41 | 96 | 1014.6 |
| 20260903021217 | 78 | 73 | 0.0 | 3.0 | 0.00 | 0.41 | 0.41 | 96 | 1014.3 |
| 20260903020005 | 78 | 82 | 1.0 | 3.0 | 0.00 | 0.41 | 0.41 | 96 | 1014.2 |
| 20260903015005 | 78 | 79 | 1.0 | 2.0 | 0.00 | 0.41 | 0.41 | 96 | 1014.2 |
| 20260903014005 | 78 | 74 | 1.0 | 3.0 | 0.00 | 0.41 | 0.41 | 96 | 1014.0 |
| 20260903013005 | 78 | 80 | 1.0 | 2.0 | 0.00 | 0.41 | 0.41 | 97 | 1013.9 |
| 20260903012005 | 78 | 91 | 1.0 | 3.0 | 0.00 | 0.41 | 0.41 | 97 | 1013.9 |
| 20260903011004 | 78 | 88 | 0.0 | 2.0 | 0.00 | 0.41 | 0.41 | 97 | 1014.2 |
| 20260903010005 | 78 | 90 | 0.0 | 2.0 | 0.00 | 0.41 | 0.41 | 97 | 1014.1 |
| 20260903005214 | 78 | 82 | 1.0 | 6.0 | 0.00 | 0.41 | 0.41 | 97 | 1013.9 |
| 20260903004004 | 78 | 78 | 1.0 | 4.0 | 0.00 | 0.41 | 0.41 | 97 | 1013.9 |
| 20260903003005 | 78 | 79 | 0.0 | 2.0 | 0.00 | 0.41 | 0.41 | 97 | 1013.8 |
| 20260903002004 | 78 | 82 | 1.0 | 4.0 | 0.00 | 0.41 | 0.41 | 97 | 1013.8 |
| 20260903001218 | 78 | 81 | 0.0 | 3.0 | 0.00 | 0.41 | 0.41 | 97 | 1013.6 |
| 20260903000005 | 77 | 77 | 1.0 | 3.0 | 0.00 | 0.41 | 0.41 | 97 | 1013.6 |
| 20260902235004 | 77 | 79 | 0.0 | 2.0 | 0.00 | 0.41 | 0.41 | 98 | 1014.0 |
| 20260902234005 | 77 | 83 | 0.0 | 3.0 | 0.00 | 0.41 | 0.41 | 98 | 1014.0 |
| 20260902233005 | 77 | 94 | 0.0 | 3.0 | 0.00 | 0.41 | 0.41 | 98 | 1013.9 |
| 20260902232004 | 77 | 90 | 0.0 | 2.0 | 0.00 | 0.41 | 0.41 | 98 | 1013.7 |
| 20260902231004 | 77 | 81 | 0.0 | 1.0 | 0.00 | 0.41 | 0.41 | 98 | 1013.6 |
| 20260902230215 | 77 | 91 | 1.0 | 3.0 | 0.00 | 0.41 | 0.41 | 98 | 1013.7 |
| 20260902225004 | 77 | 85 | 2.0 | 8.0 | 0.00 | 0.41 | 0.41 | 98 | 1013.5 |
| 20260902224005 | 77 | 91 | 2.0 | 7.0 | 0.00 | 0.41 | 0.41 | 98 | 1013.8 |
| 20260902223004 | 77 | 87 | 3.0 | 7.0 | 0.00 | 0.41 | 0.41 | 98 | 1013.4 |
| 20260902222005 | 78 | 95 | 2.0 | 10.0 | 0.00 | 0.41 | 0.41 | 99 | 1013.4 |
| 20260902221005 | 78 | 92 | 1.0 | 3.0 | 0.00 | 0.41 | 0.41 | 99 | 1013.5 |
| 20260902220005 | 79 | 88 | 1.0 | 6.0 | 0.00 | 0.41 | 0.41 | 99 | 1013.2 |
| 20260902215005 | 79 | 84 | 1.0 | 4.0 | 0.00 | 0.41 | 0.41 | 99 | 1013.5 |
| 20260902214004 | 79 | 84 | 0.0 | 2.0 | 0.00 | 0.41 | 0.41 | 99 | 1013.4 |
| 20260902213005 | 79 | 77 | 1.0 | 2.0 | 0.00 | 0.41 | 0.41 | 99 | 1013.5 |
| 20260902212004 | 78 | 80 | 1.0 | 4.0 | 0.00 | 0.41 | 0.41 | 99 | 1013.6 |
| 20260902211005 | 78 | 77 | 1.0 | 3.0 | 0.02 | 0.41 | 0.41 | 98 | 1013.8 |
| 20260902210005 | 78 | 74 | 1.0 | 3.0 | 0.03 | 0.41 | 0.41 | 98 | 1013.8 |
| 20260902205005 | 78 | 83 | 2.0 | 4.0 | 0.03 | 0.41 | 0.41 | 98 | 1013.6 |
| 20260902204005 | 78 | 79 | 2.0 | 6.0 | 0.03 | 0.41 | 0.41 | 98 | 1014.0 |
| 20260902203004 | 78 | 81 | 2.0 | 8.0 | 0.30 | 0.41 | 0.41 | 98 | 1013.9 |
| 20260902202004 | 78 | 88 | 2.0 | 7.0 | 0.41 | 0.41 | 0.41 | 98 | 1013.8 |
| 20260902201216 | 78 | 83 | 3.0 | 10.0 | 0.39 | 0.39 | 0.39 | 98 | 1014.0 |